Mount Shasta, CA

7:07 AM PDT on June 25, 2018 (GMT -0700)
Mount Shasta

Weather History for KMHS - October, 2017

Change the Weather History Date:

Wednesday, October 11, 2017

  Actual Average Record
Temperature  
Mean Temperature 48 °F 53 °F  
Max Temperature 58 °F 69 °F 87 °F (1992)
Min Temperature 37 °F 38 °F 26 °F (1990)
Degree Days  
Heating Degree Days 17 12  
Month to date heating degree days 157 112  
Since 1 July heating degree days 312 349  
Cooling Degree Days 0 0  
Month to date cooling degree days 0 0  
Year to date cooling degree days 700 287  
Moisture  
Dew Point 29 °F    
Average Humidity 55    
Maximum Humidity 85    
Minimum Humidity 32    
Precipitation  
Precipitation 0.00 in 0.06 in 2.68 in (1962)
Month to date precipitation 0.00 0.43  
Year to date precipitation 38.99 28.43  
Sea Level Pressure  
Sea Level Pressure 30.09 in    
Wind  
Wind Speed 6 mph (NNW)    
Max Wind Speed 12 mph    
Max Gust Speed 23 mph    
Visibility 10 miles    
Events      
T = Trace of Precipitation, MM = Missing Value Source: NWS Daily Summary

Daily Weather History Graph

Daily Weather History Graph

Search for Another Location

Airport or City:

Astronomy

Oct. 11, 2017 Rise Set
Actual Time 7:17 AM PDT 6:34 PM PDT
Civil Twilight 6:49 AM PDT 7:01 PM PDT
Nautical Twilight 6:17 AM PDT 7:33 PM PDT
Astronomical Twilight 5:45 AM PDT 8:05 PM PDT
Moon 11:41 PM PDT (10/11) 1:40 PM PDT (10/11)
Length of Visible Light 12h 12m
Length of Day
11h 17m
Waning Gibbous, 58% of the Moon is Illuminated
Oct 11
Waning Gibbous
Oct 12
Last Quarter
Oct 19
New
Oct 27
First Quarter
Nov 3
Full

Hourly Weather History & Observations

Time (PDT) Temp. Windchill Dew Point Humidity Pressure Visibility Wind Dir Wind Speed Gust Speed Precip Events Conditions
12:56 AM 45.0 °F 41.2 °F 32.0 °F 60% 29.97 in 9.0 mi Variable 6.9 mph - N/A   Clear
1:56 AM 43.0 °F 40.3 °F 33.1 °F 68% 29.98 in 10.0 mi Variable 4.6 mph - N/A   Clear
2:56 AM 41.0 °F 37.1 °F 34.0 °F 76% 30.00 in 10.0 mi Variable 5.8 mph - N/A   Clear
3:56 AM 42.1 °F 39.2 °F 34.0 °F 73% 29.98 in 10.0 mi NW 4.6 mph - N/A   Partly Cloudy
4:56 AM 43.0 °F 40.3 °F 34.0 °F 71% 29.99 in 10.0 mi Variable 4.6 mph - N/A   Mostly Cloudy
5:56 AM 41.0 °F 36.4 °F 34.0 °F 76% 30.02 in 10.0 mi Variable 6.9 mph - N/A   Mostly Cloudy
6:56 AM 39.9 °F 36.7 °F 33.1 °F 77% 30.04 in 10.0 mi Variable 4.6 mph - N/A   Clear
7:56 AM 37.9 °F 34.4 °F 33.1 °F 83% 30.05 in 10.0 mi Variable 4.6 mph - N/A   Clear
8:56 AM 41.0 °F 37.1 °F 32.0 °F 70% 30.10 in 10.0 mi Variable 5.8 mph - N/A   Clear
9:56 AM 46.0 °F 43.1 °F 30.0 °F 54% 30.09 in 10.0 mi Variable 5.8 mph - N/A   Clear
10:56 AM 52.0 °F - 26.1 °F 37% 30.08 in 10.0 mi Variable 6.9 mph - N/A   Clear
11:56 AM 53.1 °F - 26.1 °F 35% 30.09 in 10.0 mi Variable 6.9 mph 20.7 mph N/A   Clear
12:56 PM 55.9 °F - 27.0 °F 33% 30.09 in 10.0 mi North 6.9 mph - N/A   Clear
1:56 PM 55.9 °F - 26.1 °F 32% 30.10 in 10.0 mi NNW 8.1 mph - N/A   Clear
2:56 PM 55.0 °F - 26.1 °F 33% 30.11 in 10.0 mi Variable 6.9 mph 18.4 mph N/A   Partly Cloudy
3:56 PM 52.0 °F - 24.1 °F 34% 30.12 in 10.0 mi Variable 5.8 mph - N/A   Partly Cloudy
4:56 PM 51.1 °F - 23.0 °F 33% 30.13 in 10.0 mi Variable 6.9 mph - N/A   Clear
5:56 PM 48.9 °F - 26.1 °F 41% 30.14 in 10.0 mi North 6.9 mph - N/A   Clear
6:56 PM 46.0 °F 43.1 °F 25.0 °F 44% 30.17 in 10.0 mi Variable 5.8 mph - N/A   Clear
7:56 PM 44.1 °F 41.5 °F 26.1 °F 49% 30.20 in 10.0 mi NNW 4.6 mph - N/A   Clear
8:56 PM 42.1 °F 40.2 °F 25.0 °F 51% 30.23 in 10.0 mi Variable 3.5 mph - N/A   Clear
9:56 PM 39.9 °F 36.7 °F 28.0 °F 63% 30.24 in 10.0 mi Variable 4.6 mph - N/A   Clear
11:56 PM 37.9 °F 33.5 °F 28.9 °F 70% 30.24 in 10.0 mi Variable 5.8 mph - N/A   Clear